sat.trackr.live / text

‹ back to catalog

STARLINK-30783

NORAD 58130 · 2023-162N

PAYLOAD ACTIVE UNKNOWN

§ Identity

Operator
Country
US
Launch date
2023-10-22
Launch site
AFETR
Launch vehicle
Mass (kg)
RCS (m²)

Purposes: comms

External: N2YO · Heavens-Above · Gunter

§ Orbital elements

Epoch: 2026-09-20T06:24:25.478784Z

Period
94.27 min
Inclination
43.0044°
Eccentricity
0.0001791
Mean motion
15.27576984 rev/d
Perigee alt
481.8 km
Apogee alt
484.3 km
Semi-major
6,861.2 km
B*
1.8155e-5
RAAN
110.3406°
Arg perigee
266.4061°
Mean anomaly
93.6586°
Rev number
16,210

§ Raw data

STARLINK-307831 58130U 23162N   26263.26696156  .00000237  00000+0  18155-4 0  99962 58130  43.0044 110.3406 0001791 266.4061  93.6586 15.27576984162103

JSON: /api/v1/satellites/58130 · /tle

For live sub-satellite position, see the globe view (requires WebGL).

§ Visibility from observer

Set your observer location to see the next 7 days of passes ≥ 10°. The values pass through the URL so the page stays shareable.

No JS? Fill the form by hand. The geolocation button needs JavaScript.